Theta_e
327 328 328 325 321 319 318 318 318 318 320 319 319 319 317 315 315 316 316 315 316 315 315 316 316 316 316 316 316 315 316 317 312 314 313 314 316 317 318 318 319 319 320
326 327 325 323 322 322 321 319 318 319 319 320 320 319 318 317 316 316 316 315 316 316 316 314 314 317 317 317 317 317 317 318 319 316 318 318 318 318 318 317 319 319 319
327 326 326 324 324 322 321 320 319 319 319 319 320 320 319 319 317 316 315 315 316 317 314 313 313 314 316 316 318 318 319 319 319 319 319 319 319 319 318 318 320 320 319
325 326 324 323 322 321 321 321 321 320 319 319 319 320 320 320 319 319 318 316 316 315 314 314 313 314 314 317 318 318 319 318 319 319 320 319 320 319 319 320 320 320 320
323 322 322 321 322 322 322 322 322 321 321 321 321 321 321 321 320 320 319 316 315 316 315 314 314 313 315 318 319 318 318 318 317 318 319 319 319 319 320 320 320 321 320
322 322 322 322 322 322 322 322 322 322 322 322 322 322 322 322 322 322 322 320 319 317 316 315 314 315 315 320 320 320 320 319 319 318 317 319 319 320 319 320 320 320 319
323 324 324 325 326 325 325 323 324 325 325 324 324 324 324 324 323 322 322 322 320 318 317 316 313 315 317 320 320 319 320 320 321 320 318 317 317 317 319 320 320 320 320
321 322 323 323 323 322 322 321 322 323 323 324 325 325 325 323 323 323 323 322 321 318 318 315 314 316 318 319 320 320 321 320 319 318 320 321 321 320 319 320 319 319 320
315 316 317 318 317 318 319 317 318 320 320 320 318 319 318 313 313 320 322 321 319 318 318 316 314 315 318 321 320 321 319 316 316 320 321 321 321 320 320 315 316 317 318
312 313 313 313 313 314 314 312 313 313 314 315 315 314 312 309 307 303 307 311 314 316 317 314 314 318 319 319 320 318 316 315 316 320 317 320 321 321 319 318 317 317 318
307 308 308 308 308 307 305 305 307 307 312 314 312 310 307 304 303 299 294 295 298 304 307 310 312 313 315 318 317 316 316 314 313 314 314 314 317 319 319 320 320 319 318
302 302 302 303 302 298 300 300 301 303 306 303 299 300 303 301 299 295 294 293 293 294 300 302 306 310 311 313 312 315 315 315 314 313 313 313 315 319 320 320 320 320 319
299 299 299 299 297 297 298 299 298 298 299 297 296 296 296 299 296 294 294 293 292 293 294 294 301 306 310 312 313 315 314 313 314 315 314 315 315 319 320 320 320 320 319
297 298 299 296 296 296 297 298 297 297 297 296 295 295 295 296 295 294 294 293 292 293 294 298 303 306 309 311 312 314 314 315 316 316 316 317 317 320 320 320 319 319 318
297 296 297 296 295 296 295 295 297 296 296 296 296 295 295 295 295 293 293 293 293 293 293 301 303 300 302 303 305 306 307 308 310 315 316 318 318 318 320 319 318 319 317
296 296 296 295 296 295 295 295 295 295 296 296 296 295 295 295 294 293 294 293 294 295 295 300 298 296 296 298 299 299 302 304 304 305 310 314 319 319 319 319 318 318 317
296 295 296 295 294 294 294 295 294 295 295 295 295 295 295 295 293 293 293 294 296 296 296 298 298 297 296 296 297 297 297 299 301 302 305 307 314 319 319 319 319 318 317
295 296 294 293 293 293 294 294 294 294 295 294 294 294 295 295 293 293 293 296 295 294 294 294 294 295 297 296 296 296 296 297 298 299 302 304 305 312 317 319 319 318 318
295 296 294 293 293 294 293 294 295 295 295 294 294 294 295 294 293 293 295 294 294 293 293 292 292 292 293 295 297 296 296 295 296 297 298 300 301 304 306 311 318 318 318
294 295 295 294 294 293 294 294 295 295 294 294 294 294 294 293 293 294 294 294 293 293 293 292 292 291 292 292 292 293 295 296 295 296 296 297 298 300 301 302 306 317 318
295 295 294 294 294 294 293 293 295 294 294 294 294 295 294 293 293 294 293 293 293 293 293 292 292 291 291 291 291 292 293 294 293 294 295 294 296 297 298 298 302 307 317
294 294 294 294 294 292 292 293 294 295 295 294 294 294 294 294 294 294 293 292 292 293 293 292 291 291 291 291 291 291 289 288 289 290 291 292 293 295 296 298 299 302 306
293 293 293 292 292 292 293 294 294 294 294 294 294 294 294 294 294 294 293 292 292 292 293 292 291 291 290 290 291 290 289 288 288 287 288 291 292 293 295 296 297 299 303
292 292 291 292 292 292 293 294 294 294 294 294 293 293 293 293 293 293 293 293 293 292 292 292 291 291 290 290 290 290 289 288 288 286 286 287 289 291 293 294 296 298 300
291 291 292 292 293 294 294 294 294 294 293 293 293 293 293 293 292 292 293 293 293 292 292 292 291 292 290 290 289 290 288 288 287 286 286 286 288 290 291 293 295 296 297
292 292 293 293 294 294 293 293 293 292 292 292 292 292 292 292 292 292 292 292 292 292 292 292 292 292 290 289 288 288 288 287 286 286 285 286 287 288 289 290 292 294 296
Wind_Speed
18 17 16 14 14 9 5 4 6 8 8 9 9 11 11 10 11 14 13 15 17 16 14 15 15 17 17 17 16 17 18 21 8 22 27 25 23 22 23 19 17 15 13
16 22 20 17 11 3 2 4 8 10 10 11 12 14 13 13 13 14 15 17 19 19 13 14 17 16 17 19 17 18 17 18 17 16 23 23 21 22 23 22 18 17 13
19 18 17 14 7 4 5 7 9 11 12 13 15 16 16 17 15 15 17 18 18 15 15 16 18 18 19 18 19 17 17 17 18 19 21 23 23 18 24 17 18 18 14
18 18 15 10 6 6 8 10 11 11 13 15 16 17 18 19 19 20 22 21 18 17 21 22 21 21 21 19 19 19 16 18 18 18 19 18 19 21 19 18 21 17 16
16 13 9 5 7 10 12 14 14 15 16 16 15 18 20 20 21 21 21 15 18 20 22 23 24 21 20 19 20 19 20 18 17 15 17 18 19 19 19 18 19 20 19
7 5 5 9 13 14 15 16 17 19 19 18 17 20 22 23 24 23 23 24 24 22 23 24 23 21 16 16 14 17 18 22 22 19 18 16 21 16 17 16 16 13 3
5 4 5 1 5 6 7 7 9 10 11 14 16 18 22 25 26 26 25 26 26 23 21 22 21 21 19 19 22 19 17 17 17 22 24 25 24 24 16 16 15 13 11
20 20 19 19 17 15 15 15 15 16 15 15 17 19 20 19 20 21 22 22 22 23 21 20 22 25 21 20 18 17 17 17 17 18 22 24 24 20 17 17 16 15 13
20 19 18 16 15 16 13 15 15 16 16 14 16 17 13 16 21 18 16 15 19 21 19 21 22 24 21 18 18 19 17 19 15 14 16 19 17 16 18 16 14 10 5
19 18 17 18 17 17 14 15 17 16 13 14 12 11 15 20 24 32 28 13 12 13 13 14 13 19 20 19 20 15 15 19 15 15 14 11 13 17 18 19 13 12 8
15 13 14 16 15 13 18 18 18 20 17 10 8 8 15 19 22 26 31 28 24 21 16 18 15 16 17 14 14 15 16 17 18 18 19 16 15 18 19 17 17 16 15
13 13 12 14 13 18 17 18 20 16 16 17 18 16 12 16 21 25 26 27 24 24 21 21 22 18 20 16 17 20 21 21 21 22 22 21 19 20 20 19 18 15 12
13 13 14 13 16 15 17 18 13 16 11 12 15 17 17 12 21 22 25 28 23 26 24 26 23 21 19 18 19 25 23 26 28 26 27 26 21 19 15 10 9 10 9
14 15 14 17 17 19 19 14 13 14 11 10 11 11 12 12 15 19 24 31 26 26 27 23 20 16 16 12 16 17 20 24 27 29 29 27 20 15 10 8 10 12 9
14 16 17 17 17 16 19 20 15 14 17 13 14 11 10 11 12 16 24 32 25 27 24 18 16 19 20 22 20 20 22 23 20 18 28 29 23 19 14 13 12 15 10
11 15 16 18 20 15 19 22 17 14 17 17 13 14 14 12 10 17 29 29 27 29 18 14 12 17 20 16 18 24 23 22 25 26 22 19 19 16 14 17 19 20 15
14 16 20 15 18 19 20 17 20 21 14 11 15 18 17 13 8 15 30 28 30 27 18 9 11 15 17 16 16 19 20 23 23 24 20 25 19 17 16 19 23 22 18
13 15 12 18 17 19 21 23 25 23 11 12 16 19 25 9 6 16 21 17 25 22 21 20 21 24 18 18 17 19 24 24 25 25 23 22 22 17 17 16 22 21 18
16 13 10 14 20 21 22 23 19 13 10 16 20 22 12 6 9 12 10 15 15 16 19 21 21 22 23 23 18 17 19 23 20 20 23 21 22 22 21 25 17 26 25
14 16 14 19 20 21 21 20 17 9 13 15 17 24 6 6 12 5 10 13 13 13 15 17 19 21 22 22 22 20 17 18 20 19 22 21 22 24 21 21 22 7 24
13 13 20 22 22 16 21 24 14 15 14 14 19 14 16 16 16 6 7 9 9 9 11 12 13 19 19 20 24 24 20 19 23 23 21 22 20 19 20 22 22 21 11
15 18 20 21 18 20 23 25 20 14 13 11 13 16 12 14 7 4 1 4 6 6 7 8 10 14 15 19 22 18 20 23 21 22 23 22 24 22 21 16 19 20 19
12 16 20 22 23 24 25 21 15 13 15 13 13 13 17 12 4 5 2 3 5 7 7 7 8 9 10 15 17 12 21 23 22 26 23 21 17 16 18 21 19 20 20
13 18 21 21 22 24 24 15 13 12 12 13 14 12 11 14 14 8 7 6 10 8 8 9 10 11 9 8 14 11 17 21 23 29 25 22 20 16 16 17 21 21 20
17 20 21 23 18 16 16 14 11 14 14 13 14 15 17 14 15 15 14 9 12 13 12 12 12 14 8 6 10 11 15 14 22 27 31 19 17 14 13 13 15 20 22
19 22 17 14 17 11 11 12 13 13 13 16 16 17 15 14 18 19 16 17 17 15 14 16 15 14 9 7 8 11 12 18 24 26 28 25 19 19 17 17 16 18 20
Wind_Direction
183 175 169 170 161 152 162 209 238 257 263 273 273 273 277 281 286 282 275 295 294 296 308 313 305 302 299 301 300 298 299 297 269 295 300 308 308 316 320 317 311 311 275
181 166 162 156 157 172 290 254 252 250 263 272 278 274 267 278 279 274 276 292 289 284 293 301 310 313 301 294 295 295 296 296 295 290 308 305 306 308 304 306 309 305 283
187 174 161 163 180 254 255 260 260 262 267 277 280 278 274 279 277 278 281 283 290 279 287 301 307 303 297 298 289 294 300 298 295 299 300 304 304 306 313 314 310 299 291
141 156 157 164 206 242 255 255 262 266 270 274 280 285 286 283 284 285 284 279 279 276 298 301 305 298 292 291 288 288 283 296 299 302 298 304 303 308 314 316 316 309 302
126 143 160 205 244 246 245 252 259 259 268 275 281 284 286 286 287 290 292 275 271 291 301 303 303 300 293 286 286 278 282 282 282 294 294 296 298 305 309 314 306 303 295
127 161 208 232 238 241 249 258 267 269 273 273 278 285 287 287 287 285 284 288 289 288 296 304 306 305 286 297 280 286 289 278 275 276 282 283 290 296 306 310 310 309 288
178 254 284 348 20 320 299 312 338 344 332 316 310 305 297 297 293 288 290 286 276 281 291 303 303 305 295 285 293 280 284 291 276 274 273 276 280 282 297 298 307 296 260
57 47 36 33 28 18 7 7 358 349 346 344 337 332 324 326 308 297 292 294 278 273 286 299 301 298 295 288 289 286 289 288 286 288 285 284 285 287 270 282 289 292 287
38 33 33 27 19 15 10 6 4 356 0 2 6 8 14 11 358 321 308 297 279 272 291 298 299 297 290 285 274 279 280 295 298 289 298 281 274 274 276 274 271 263 273
25 22 24 16 4 357 0 357 351 345 339 345 7 9 15 18 16 15 12 341 308 303 285 304 331 346 295 288 268 257 281 299 301 301 311 301 282 283 271 262 260 240 235
21 15 9 7 2 357 352 350 347 336 325 349 16 47 22 9 3 8 9 4 354 334 325 321 311 312 330 320 283 276 284 298 297 298 304 296 291 284 284 273 254 243 231
19 7 6 2 5 359 355 349 350 17 21 33 32 22 20 8 8 6 5 358 355 345 337 319 314 322 306 300 297 295 290 289 287 289 292 293 291 287 289 276 262 242 236
16 5 359 5 2 356 348 340 16 9 28 24 8 358 353 0 355 357 357 353 351 345 338 330 320 319 315 301 297 312 290 278 279 277 277 282 283 291 298 268 233 214 215
12 1 6 6 355 353 354 3 5 3 342 349 345 337 336 336 340 342 348 345 343 343 340 334 333 340 336 345 344 355 334 294 281 276 277 283 281 280 261 215 191 184 177
12 0 354 352 340 348 356 351 346 349 339 317 315 310 311 323 328 341 339 335 336 336 332 340 352 356 354 360 354 356 0 359 6 329 277 271 270 271 232 209 209 185 173
5 346 339 334 335 357 350 338 343 335 335 335 329 305 299 293 325 349 337 338 332 334 316 321 348 20 24 8 14 4 359 359 355 352 347 334 280 262 244 208 200 192 190
354 336 336 2 355 348 334 326 326 322 333 356 356 340 312 273 337 351 338 347 355 3 342 319 334 9 15 20 23 14 358 354 354 351 341 344 329 263 240 222 201 199 198
332 325 351 346 335 326 315 315 312 304 342 6 345 329 320 257 330 341 351 32 27 31 38 32 24 17 0 5 11 18 9 3 350 346 350 354 353 4 302 227 208 196 195
328 329 343 330 317 313 314 309 308 334 357 346 333 326 307 220 302 334 34 41 37 32 26 30 26 17 12 3 8 4 5 8 353 350 353 351 355 13 353 355 246 197 193
324 321 327 318 309 315 327 312 318 326 332 327 326 317 295 252 280 21 61 50 35 25 28 22 18 14 11 16 10 3 355 353 358 356 354 353 354 13 356 350 10 272 188
307 310 316 308 304 307 325 323 315 316 308 307 304 314 327 324 320 77 36 29 18 9 8 13 14 7 3 1 0 354 2 18 8 360 355 355 353 360 4 353 357 6 264
319 314 306 303 317 326 316 310 311 321 325 324 334 330 340 349 41 347 272 333 331 332 353 3 359 6 2 356 354 18 26 20 9 3 355 346 352 359 354 353 356 347 346
316 313 316 314 311 309 308 303 321 326 317 330 331 346 343 343 6 12 346 320 298 300 307 324 330 341 352 354 357 8 16 18 14 359 355 348 347 347 347 358 352 344 344
301 298 298 299 301 299 296 319 317 323 326 324 321 324 326 320 322 319 314 314 303 283 294 305 317 296 312 340 354 336 357 358 3 5 358 348 339 340 345 359 347 332 344
305 305 304 298 306 317 337 328 331 337 330 325 327 320 311 315 323 324 328 312 298 281 286 293 303 312 284 320 346 327 343 354 353 353 359 355 338 335 343 334 330 340 342
308 308 304 320 308 314 324 329 330 330 325 317 318 316 323 319 314 307 313 308 313 301 293 289 289 297 288 318 333 337 341 341 343 345 347 355 339 339 336 332 328 330 340